Content
SEND FEEDBACK

Daily
Averages
Monthly
Summary
United States of America

YIGO, GUAM


Home > North America > United States > Guam
Elevation: 162 meters     Latitude: 13 32N     Longitude: 144 53E

WEATHER
 
SELECT A DAY
Number of Records: 209,308;   Date Range: 1/1/95 - 9/18/14
 
SHARE

PRINT THIS DATA

[ ← Previous Day ]
WEATHER ALMANAC - 7 MAY, 2013
[ Next Day → ]
[ °F ]   °C
Weather ElementAverageHighLow
Temperature29.3 °C32 °C (2:18 pm)26 °C (6:07 am)
Dewpoint24 °C25 °C (7:54 am)23 °C (11:28 am)
Humidity73.2 %89 % (6:07 am)62 % (11:28 am)
Barometer1010.2 hPa1011.9 hPa (8:10 am)1008.1 hPa (3:54 pm)
Wind Speed12.1 km/h20.4 km/h (1:30 pm)
Wind Gust31.5 km/h (12:28 pm)
Weather ElementAverage
Visibility15.3 km
Wind DirectionE (94.6 °)

Weather ElementTotal
Precipitation1.78 mm
Cooling Degree Days10.7 (Base 18.3)
Growing Degree Days19 (Base 10)
Averaged from 37 records on 7 May, 2013
WEATHER CONDITIONS BREAKOUT
WIND DIRECTION BREAKOUT
WEATHER BY HOUR - 7 MAY, 2013
[ °F ]   °C
Local TimeTemperatureDewpointHumidityBarometerVisibilityWind DirectionWind SpeedGust SpeedPrecipitationEventsConditions
1:54 AM26.7 °C24.4 °C87 %1010.8 hPa16.1 kmEast (80°)5.6 km/hClear
2:54 AM27.2 °C24.4 °C85 %1010.2 hPa16.1 kmCalmPartly Cloudy
3:54 AM26.7 °C24.4 °C87 %1009.8 hPa16.1 kmEast (100°)5.6 km/h0.25 mmClear
4:54 AM27.2 °C24.4 °C85 %1010.2 hPa16.1 kmCalmScattered Clouds
5:06 AM27 °C24 °C84 %1010.8 hPa16.1 kmENE (70°)5.6 km/hMostly Cloudy
5:54 AM26.7 °C23.9 °C85 %1010.5 hPa9.7 kmESE (110°)14.8 km/h0.51 mmRainLight Rain
6:07 AM26 °C24 °C89 %1011.2 hPa8 kmSE (130°)5.6 km/h0.25 mmRainLight Rain
6:54 AM27.2 °C23.9 °C82 %1010.5 hPa16.1 kmEast (90°)7.4 km/h0.25 mmClear
7:54 AM28.9 °C25 °C79 %1011.2 hPa16.1 kmENE (70°)9.3 km/hClear
8:10 AM29 °C24 °C74 %1011.9 hPa2.4 kmEast (100°)11.1 km/hHaze
8:23 AM29 °C24 °C74 %1011.9 hPa16.1 kmEast (100°)13 km/hClear
8:54 AM29.4 °C24.4 °C74 %1011.2 hPa16.1 kmEast (100°)11.1 km/hMostly Cloudy
8:56 AM29 °C24 °C74 %1011.9 hPa16.1 kmEast (90°)13 km/hScattered Clouds
9:54 AM30 °C24.4 °C72 %1010.8 hPa16.1 kmESE (120°)13 km/hScattered Clouds
10:49 AM31 °C24 °C66 %1011.2 hPa16.1 kmEast (100°)11.1 km/hMostly Cloudy
10:54 AM31.1 °C23.9 °C65 %1010.5 hPa16.1 kmEast (90°)16.7 km/hMostly Cloudy
11:28 AM31 °C23 °C62 %1011.2 hPa16.1 kmESE (110°)16.7 km/hMostly Cloudy
11:40 AM31 °C24 °C66 %1010.8 hPa16.1 kmESE (110°)16.7 km/hMostly Cloudy
11:54 AM31.1 °C23.9 °C65 %1009.8 hPa16.1 kmESE (110°)16.7 km/h27.8 km/hMostly Cloudy
12:28 PM31 °C23 °C62 %1010.5 hPa16.1 kmESE (110°)18.5 km/h31.5 km/hScattered Clouds
12:54 PM31.1 °C23.3 °C63 %1009.1 hPa16.1 kmEast (80°)16.7 km/hMostly Cloudy
1:30 PM31 °C24 °C66 %1009.5 hPa16.1 kmEast (100°)20.4 km/h27.8 km/hMostly Cloudy
1:54 PM31.1 °C23.9 °C65 %1008.5 hPa16.1 kmEast (100°)18.5 km/hMostly Cloudy
2:01 PM30 °C24 °C70 %1009.5 hPa16.1 kmSE (130°)16.7 km/hMostly Cloudy
2:18 PM32 °C24 °C62 %1009.5 hPa16.1 kmESE (110°)16.7 km/hScattered Clouds
2:54 PM31.1 °C23.3 °C63 %1008.5 hPa16.1 kmEast (100°)14.8 km/hPartly Cloudy
3:54 PM31.1 °C23.9 °C65 %1008.1 hPa16.1 kmESE (110°)18.5 km/hPartly Cloudy
4:30 PM30 °C24 °C70 %1008.8 hPa16.1 kmEast (100°)13 km/hMostly Cloudy
4:54 PM30 °C23.3 °C67 %1008.1 hPa16.1 kmEast (100°)13 km/hMostly Cloudy
5:07 PM31 °C24 °C66 %1008.8 hPa16.1 kmEast (100°)13 km/hScattered Clouds
5:54 PM30 °C23.9 °C70 %1008.1 hPa16.1 kmEast (80°)16.7 km/hPartly Cloudy
6:54 PM28.9 °C23.9 °C74 %1008.8 hPa16.1 kmEast (80°)11.1 km/hClear
7:54 PM28.9 °C24.4 °C76 %1009.5 hPa16.1 kmEast (90°)11.1 km/hPartly Cloudy
8:54 PM28.9 °C23.9 °C74 %1010.2 hPa16.1 kmEast (100°)11.1 km/hScattered Clouds
9:54 PM27.8 °C24.4 °C82 %1010.8 hPa16.1 kmSE (130°)7.4 km/h0.51 mmOvercast
10:54 PM28.3 °C24.4 °C79 %1010.8 hPa16.1 kmEast (100°)11.1 km/hScattered Clouds
11:54 PM28.3 °C24.4 °C79 %1010.8 hPa16.1 kmEast (100°)5.6 km/hMostly Cloudy
Hourly data recorded from PGUM, located 0 kilometers away from Yigo, Guam







STORIES FROM OUR PARTNERS